Location: Peterborough
(44.3091°N, 78.3197°W)
Time: 02:47:56
(UTC-04:00)

S-56A Canister/Altair - Pass Details

Date: 28 March 2023
Orbit: 639 x 2492 km, 38.9° (Epoch: 08 June)

Event Time Altitude Azimuth Distance (km) Brightness Sun altitude
Rises 03:03:38 0° 282° (WNW) 6,143 12.0 -37.2°
Enters shadow 03:05:36 - 277° (W) 5,797 11.8 -37.0°
Reaches altitude 10° 03:09:43 10° 266° (W) 5,150 - -36.6°
Maximum altitude 03:17:47 17° 232° (SW) 4,424 - -35.8°
Drops below altitude 10° 03:25:17 10° 198° (SSW) 4,698 - -34.9°
Sets 03:30:30 0° 180° (S) 5,396 - -34.3°
